Location: Rostock
(54.0884°N, 12.1234°E)
Time: 04:18:30
(UTC+02:00)

ISS - Pass Details

Date: 05 January 2018
Orbit: 402 x 408 km, 51.6° (Epoch: 23 July)

Event Time Altitude Azimuth Distance (km) Brightness Sun altitude
Exits shadow 07:42:55 - 271° (W) 1,846 -1.0 -6.5°
Reaches altitude 10° 07:43:47 10° 268° (W) 1,502 -1.5 -6.4°
Maximum altitude 07:47:00 42° 196° (SSW) 613 -2.8 -6.0°
Drops below altitude 10° 07:50:13 10° 124° (SE) 1,507 1.0 -5.6°
Sets 07:52:23 0° 117° (ESE) 2,372 2.8 -5.3°
